Skip Page Navigation
NASA JPL Caltech
NASA Logo - Jet Propulsion Laboratory + View the NASA Portal
+ Near-Earth Object (NEO) Program
Search JPL
JPL Home Earth Solar System Stars & Galaxies Technology
JPL Solar System Dynamics
BODIES ORBITS EPHEMERIDES TOOLS PHYSICAL DATA DISCOVERY FAQ SITE MAP
JPL Small-Body Database Browser
Search: [ help ]  
(2008 EL6)
Classification: Apollo [NEO, PHA]          SPK-ID: 3405068
Ephemeris | Orbit Diagram | Orbital Elements | Physical Parameters | Close-Approach Data ]

[ hide orbit diagram ]
Orbit Diagram
Note: Make sure you have Java enabled on your browser to see the applet. This applet is provided as a 3D orbit visualization tool. The applet was implemented using 2-body methods, and hence should not be used for determining accurate long-term trajectories (over several years or decades) or planetary encounter circumstances. For accurate long-term ephemerides, please instead use our Horizons system.
Orbit Viewer

Additional Notes: the orbits shown in the applet are color coded. The planets are white lines, and the asteroid/comet is a blue line. The bright white line indicates the portion of the orbit that is above the ecliptic plane, and the darker portion is below the ecliptic plane. Likewise for the asteroid/comet orbit, the light blue indicates the portion above the ecliptic plane, and the dark blue the portion below the ecliptic plane.

Orbit Viewer applet originally written and kindly provided by Osamu Ajiki (AstroArts), and further modified by Ron Baalke (JPL).


Orbital Elements at Epoch 2456400.5 (2013-Apr-18.0) TDB
Reference: JPL 13 (heliocentric ecliptic J2000)
 Element Value Uncertainty (1-sigma)   Units 
e .4802863819113457 2.5628e-07  
a 1.728324942722243 5.9464e-07 AU
q .8982340092150434 2.0374e-07 AU
i 13.14431627827067 2.6671e-05 deg
node 177.7284693206935 4.3526e-05 deg
peri 38.30057867193059 5.389e-05 deg
M 72.43515821687173 0.00041352 deg
tp 2456233.512702736678
(2012-Nov-02.01270274)
0.00086717 JED
period 829.9205592235961
2.27
0.00042831
1.173e-06
d
yr
n .4337764572753635 2.2387e-07 deg/d
Q 2.558415876229443 8.8024e-07 AU
  Orbit Determination Parameters
   # obs. used (total)      67  
   data-arc span      684 days (1.87 yr)  
   first obs. used      2008-03-05  
   last obs. used      2010-01-18  
   planetary ephem.      DE405  
   SB-pert. ephem.      SB405-CPV-2  
   condition code      1  
   fit RMS      .39225  
   data source      ORB  
   producer      Otto Matic  
   solution date      2011-Sep-14 20:26:02  

Additional Information
 Earth MOID = .0206053 AU 
 T_jup = 3.995 
[ show covariance matrix ]

Ephemeris | Orbit Diagram | Orbital Elements | Physical Parameters | Close-Approach Data ]

Physical Parameter Table
Parameter Symbol Value Units Sigma Reference Notes
absolute magnitude H 20.955 mag .37824 13 autocmod 2.5a

[ show close-approach data ]
Ephemeris | Orbit Diagram | Orbital Elements | Physical Parameters | Close-Approach Data ]
ABOUT SSD CREDITS/AWARDS PRIVACY/COPYRIGHT GLOSSARY LINKS
FirstGov 2013-May-18 11:52 UT
(server date/time)  
NASA Home Page
Site Manager:   Donald K. Yeomans
Webmaster  Alan B. Chamberlin